EW9968 Weather Reports


Display with metric or nautical units.
time (UTC)temp
F
wind
direction
speed
MPH
gust
MPH
rain 1hr
in
rain 24hr
in
rain mn
in
humidity
%
barometer
mb
20260509191607 49 257 0.0 0.0 0.00 0.15 0.15 92 1012.5
20260509190049 49 39 0.0 0.0 0.00 0.15 0.15 92 1012.1
20260509184541 49 67 0.0 0.0 0.00 0.15 0.15 93 1012.3
20260509183042 49 46 0.0 0.0 0.01 0.15 0.15 93 1012.6
20260509181539 48 321 0.0 0.0 0.01 0.15 0.15 93 1013.0
20260509180035 48 32 0.0 0.0 0.01 0.15 0.15 93 1013.4
20260509174533 48 13 0.0 0.0 0.02 0.15 0.15 92 1013.3
20260509173047 48 348 0.0 0.0 0.01 0.14 0.14 92 1013.5
20260509171537 48 20 0.0 0.0 0.02 0.14 0.14 93 1013.4
20260509170036 47 27 0.0 0.0 0.03 0.14 0.14 92 1013.8
20260509164528 47 20 0.0 0.0 0.03 0.13 0.13 92 1013.7
20260509163028 47 42 0.0 0.0 0.03 0.13 0.13 92 1014.0
20260509161526 46 56 0.0 0.0 0.03 0.12 0.12 92 1013.9
20260509160024 47 37 0.0 0.0 0.02 0.11 0.11 92 1014.0
20260509154523 46 39 0.0 0.0 0.02 0.10 0.10 92 1013.7
20260509153022 46 37 0.0 0.0 0.03 0.10 0.10 92 1013.9
20260509151521 46 19 0.0 0.0 0.03 0.09 0.09 92 1014.2
20260509150027 45 63 0.0 0.0 0.03 0.08 0.08 91 1014.5
20260509144519 45 240 0.0 0.0 0.04 0.08 0.08 91 1014.7
20260509143019 45 140 0.0 0.0 0.04 0.07 0.07 92 1014.7
20260509141526 45 222 0.0 0.0 0.04 0.06 0.06 92 1014.9
20260509140028 45 165 0.0 0.0 0.03 0.05 0.05 92 1014.9
20260509134514 45 347 0.0 0.0 0.03 0.04 0.04 92 1014.8
20260509133012 44 348 0.0 0.0 0.02 0.03 0.03 93 1014.6
20260509131515 43 348 0.0 0.0 0.01 0.02 0.02 92 1014.6
20260509130007 43 345 0.0 0.0 0.01 0.02 0.02 92 1014.5
20260509124506 43 306 0.0 0.0 0.01 0.01 0.01 91 1014.7
20260509123003 42 306 0.0 0.0 0.01 0.01 0.01 91 1014.6
20260509121502 42 304 0.0 0.0 0.01 0.01 0.01 90 1014.7
20260509120000 42 110 0.0 0.0 0.01 0.01 0.01 89 1014.6
20260509114611 42 110 0.0 0.0 0.00 0.00 0.00 88 1014.7
20260509113104 42 153 0.0 0.0 0.00 0.00 0.00 87 1014.8
20260509111554 41 146 0.0 0.0 0.00 0.00 0.00 89 1014.9
20260509104553 0 0.0 0.0 0.00 0.00 0.00 1014.7
20260509103041 0 0.0 0.0 0.00 0.00 0.00 1014.7
20260509101538 0 0.0 0.0 0.00 0.00 0.00 1014.8
20260509100037 0 0.0 0.0 0.00 0.00 0.00 1014.5
20260509094529 0 0.0 0.0 0.00 0.00 0.00 1014.3
20260509093026 0 0.0 0.0 0.00 0.00 0.00 1014.2
20260509091520 0 0.0 0.0 0.00 0.00 0.00 1014.2
20260509090016 0 0.0 0.0 0.00 0.00 0.00 1014.0
20260509084513 0 0.0 0.0 0.00 0.00 0.00 1013.8
20260509083006 0 0.0 0.0 0.00 0.00 0.00 1013.9
20260509081502 0 0.0 0.0 0.00 0.00 0.00 1013.9
20260509080059 0 0.0 0.0 0.00 0.00 0.00 1013.9
20260509074556 0 0.0 0.0 0.00 0.00 0.00 1014.0
20260509073048 0 0.0 0.0 0.00 0.00 0.00 1014.1
20260509071544 0 0.0 0.0 0.00 0.00 0.00 1014.1
20260509070040 0 0.0 0.0 0.00 0.00 0.00 1013.8
20260509064536 0 0.0 0.0 0.00 0.00 0.00 1013.8
20260509063033 0 0.0 0.0 0.00 0.00 0.00 1013.7
20260509061527 0 0.0 0.0 0.00 0.00 0.00 1013.7
20260509060025 0 0.0 0.0 0.00 0.00 0.00 1013.7
20260509054525 0 0.0 0.0 0.00 0.00 0.00 1013.7
20260509053030 0 0.0 0.0 0.00 0.00 0.00 1013.9
20260509051516 0 0.0 0.0 0.00 0.00 0.00 1013.8
20260509050020 0 0.0 0.0 0.00 0.00 0.00 1013.6
20260509044501 0 0.0 0.0 0.00 0.00 0.00 1013.8
20260509043058 0 0.0 0.0 0.00 0.00 0.00 1013.7
20260509041552 0 200 0.0 0.0 0.00 0.00 0.00 1013.6
20260509040108 40 200 0.0 0.0 0.00 0.00 0.00 80 1013.4
20260509034604 41 200 0.0 0.0 0.00 0.00 0.00 79 1013.3
20260509033048 41 200 0.0 0.0 0.00 0.00 0.00 78 1013.3
20260509031546 42 200 0.0 0.0 0.00 0.00 0.00 77 1013.4
20260509030046 42 200 0.0 0.0 0.00 0.00 0.00 76 1013.1
20260509024545 43 200 0.0 0.0 0.00 0.00 0.00 75 1013.0
20260509023048 43 200 0.0 0.0 0.00 0.00 0.00 73 1012.9
20260509021543 44 200 0.0 0.0 0.00 0.00 0.00 72 1013.0
20260509020045 45 200 0.0 0.0 0.00 0.00 0.00 70 1012.5
20260509014540 46 200 0.0 0.0 0.00 0.00 0.00 67 1012.3
20260509013042 46 200 0.0 0.0 0.00 0.00 0.00 63 1012.0
20260509011536 47 200 0.0 0.0 0.00 0.00 0.00 62 1011.9
20260509010034 48 200 0.0 0.0 0.00 0.00 0.00 60 1011.6
20260509004539 49 200 0.0 0.0 0.00 0.00 0.00 57 1011.3
20260509003044 51 200 0.0 0.0 0.00 0.00 0.00 54 1011.0
20260509001527 52 200 0.0 0.0 0.00 0.00 0.00 51 1010.5
20260509000026 53 255 0.0 0.0 0.00 0.00 0.00 49 1010.4
20260508234527 54 359 0.0 0.0 0.00 0.00 0.00 46 1010.0
20260508233023 55 252 0.0 0.0 0.00 0.00 0.00 45 1009.8
20260508231523 55 282 0.0 0.0 0.00 0.00 0.00 44 1009.6
20260508230026 56 228 0.0 0.0 0.00 0.00 0.00 42 1009.3
20260508224520 56 253 0.0 0.0 0.00 0.00 0.00 44 1009.2
20260508223021 57 252 0.0 0.0 0.00 0.00 0.00 42 1009.1
20260508221522 57 275 0.0 0.0 0.00 0.00 0.00 41 1009.0
20260508220019 57 281 0.0 0.0 0.00 0.00 0.00 41 1009.1
20260508214519 57 266 0.0 0.0 0.00 0.00 0.00 40 1009.1
20260508213018 58 262 0.0 0.0 0.00 0.00 0.00 40 1008.9
20260508211524 58 179 0.0 5.0 0.00 0.00 0.00 38 1008.9
20260508210018 58 250 0.0 0.0 0.00 0.00 0.00 38 1008.8
20260508204516 58 51 0.0 1.0 0.00 0.00 0.00 40 1008.9
20260508203017 59 309 0.0 6.0 0.00 0.00 0.00 39 1008.8
20260508201515 59 264 0.0 4.0 0.00 0.00 0.00 39 1008.6
20260508200016 60 230 0.0 0.0 0.00 0.00 0.00 39 1008.5
20260508194513 60 244 0.0 0.0 0.00 0.00 0.00 40 1008.6
20260508193012 60 234 0.0 7.0 0.00 0.00 0.00 40 1008.6